FW2068 Weather Reports


Display with metric or nautical units.
time (UTC)temp
F
wind
direction
speed
MPH
gust
MPH
rain 1hr
in
rain 24hr
in
rain mn
in
humidity
%
barometer
mb
20210302143650 47 315 0.0 0.0 0.00 0.76 0.00 68 1026.1
20210302143323 47 180 0.0 0.0 0.00 0.76 0.00 68 1026.1
20210302142749 47 270 0.0 0.0 0.00 0.76 0.00 68 1026.0
20210302142120 46 270 0.0 0.0 0.00 0.76 0.00 69 1026.0
20210302141614 46 270 0.0 0.0 0.00 0.76 0.00 71 1026.0
20210302141109 44 292 0.0 0.0 0.00 0.76 0.00 74 1025.7
20210302140604 44 270 0.0 0.0 0.00 0.76 0.00 73 1025.7
20210302140053 43 270 0.0 0.0 0.00 0.76 0.00 75 1025.7
20210302135524 42 0 0.0 0.0 0.00 0.76 0.00 77 1025.7
20210302135053 41 270 0.0 0.0 0.00 0.76 0.00 79 1025.7
20210302134446 38 292 0.0 0.0 0.00 0.76 0.00 84 1025.7
20210302133932 38 292 0.0 0.0 0.00 0.76 0.00 84 1025.7
20210302133553 38 292 0.0 0.0 0.00 0.76 0.00 84 1025.8
20210302133116 38 292 0.0 0.0 0.00 0.77 0.00 83 1025.8
20210302132416 38 270 0.0 0.0 0.00 0.77 0.00 83 1025.7
20210302131901 38 270 0.0 0.0 0.00 0.77 0.00 83 1025.7
20210302131350 38 338 0.0 0.0 0.00 0.77 0.00 83 1025.8
20210302130841 38 270 0.0 0.0 0.00 0.77 0.00 82 1025.8
20210302130326 38 292 0.0 0.0 0.00 0.77 0.00 82 1025.8
20210302125342 38 270 0.0 0.0 0.00 0.77 0.00 81 1025.8
20210302124944 38 270 0.0 0.0 0.00 0.77 0.00 80 1025.6
20210302124257 38 270 0.0 0.0 0.00 0.77 0.00 80 1025.6
20210302123730 38 270 0.0 0.0 0.00 0.77 0.00 79 1025.6
20210302123402 38 270 0.0 0.0 0.00 0.77 0.00 79 1025.6
20210302122157 39 270 0.0 0.0 0.00 0.77 0.00 78 1025.6
20210302121730 39 338 0.0 0.0 0.00 0.77 0.00 77 1025.6
20210302121144 39 292 0.0 0.0 0.00 0.77 0.00 77 1025.6
20210302120654 40 315 0.0 0.0 0.00 0.77 0.00 74 1025.6
20210302120127 40 270 0.0 0.0 0.00 0.77 0.00 73 1025.6
20210302115618 40 270 0.0 0.0 0.00 0.78 0.00 72 1025.6
20210302115211 41 270 0.0 0.0 0.00 0.78 0.00 70 1025.4
20210302114600 41 270 0.0 0.0 0.00 0.78 0.00 70 1025.4
20210302114131 41 270 0.0 0.0 0.00 0.78 0.00 70 1025.4
20210302113428 41 270 0.0 0.0 0.00 0.78 0.00 70 1025.2
20210302112729 41 270 0.0 0.0 0.00 0.78 0.00 69 1025.0
20210302112018 41 248 0.0 0.0 0.00 0.78 0.00 70 1025.0
20210302111511 41 202 0.0 0.0 0.00 0.78 0.00 70 1024.9
20210302110954 41 225 0.0 0.0 0.00 0.78 0.00 69 1024.9
20210302110519 41 248 0.0 0.0 0.00 0.78 0.00 69 1024.9
20210302105911 42 248 0.0 0.0 0.00 0.78 0.00 68 1024.7
20210302105452 42 248 0.0 0.0 0.00 0.78 0.00 69 1024.7
20210302105021 42 248 0.0 0.0 0.00 0.79 0.00 69 1025.0
20210302104331 42 248 0.0 0.0 0.00 0.79 0.00 68 1025.0
20210302103830 42 202 0.0 0.0 0.00 0.79 0.00 69 1024.9
20210302103628 42 202 0.0 0.0 0.00 0.79 0.00 68 1024.9
20210302103045 42 248 0.0 0.0 0.00 0.79 0.00 67 1024.9
20210302102248 43 180 0.0 0.0 0.00 0.79 0.00 67 1025.1
20210302101724 43 180 0.0 0.0 0.00 0.79 0.00 66 1025.1
20210302101206 43 135 0.0 0.0 0.00 0.79 0.00 65 1025.2
20210302100710 44 135 0.0 0.0 0.00 0.79 0.00 66 1025.2
20210302100159 44 158 0.0 0.0 0.00 0.80 0.00 65 1025.4
20210302095628 44 135 0.0 0.0 0.00 0.81 0.00 66 1025.4
20210302095331 44 112 0.0 0.0 0.00 0.83 0.00 66 1025.4
20210302094628 44 112 0.0 0.0 0.00 0.83 0.00 70 1025.3
20210302094113 44 158 0.0 0.0 0.00 0.83 0.00 70 1025.3
20210302093722 44 135 0.0 0.0 0.00 0.83 0.00 71 1025.6
20210302093614 45 202 0.0 0.0 0.00 0.83 0.00 73 1025.6
20210302092849 45 270 0.0 0.0 0.00 0.83 0.00 73 1025.8
20210302092051 45 112 0.0 0.0 0.00 0.83 0.00 75 1025.8
20210302091532 45 112 0.0 0.0 0.00 0.84 0.00 75 1025.8
20210302091206 45 180 0.0 0.0 0.00 0.84 0.00 75 1026.1
20210302091059 45 180 0.0 0.0 0.00 0.84 0.00 75 1026.1
20210302090240 45 270 0.0 0.0 0.00 0.84 0.00 78 1026.2
20210302085516 45 270 0.0 0.0 0.00 0.84 0.00 76 1026.2
20210302084946 45 270 0.0 0.0 0.00 0.84 0.00 74 1026.1
20210302084443 45 248 0.0 0.0 0.00 0.84 0.00 74 1026.1
20210302083927 45 158 0.0 0.0 0.00 0.84 0.00 74 1026.1
20210302083451 45 225 0.0 0.0 0.00 0.86 0.00 74 1026.4
20210302082856 45 225 0.0 0.0 0.00 0.92 0.00 74 1026.4
20210302082619 45 248 0.0 0.0 0.00 0.94 0.00 74 1026.4
20210302082026 45 135 0.0 0.0 0.00 0.94 0.00 76 1026.4
20210302081327 45 112 0.0 0.0 0.00 0.94 0.00 79 1026.4
20210302080814 44 270 0.0 0.0 0.00 0.94 0.00 78 1026.4
20210302080307 45 270 0.0 0.0 0.00 0.94 0.00 78 1026.4
20210302075908 45 270 0.0 0.0 0.00 0.94 0.00 78 1026.4
20210302075407 45 248 0.0 0.0 0.66 0.94 0.00 78 1026.4
20210302074726 45 270 0.0 0.0 0.66 0.94 0.00 80 1026.5
20210302074225 45 270 0.0 0.0 0.66 0.94 0.00 81 1026.5
20210302073727 45 270 0.0 0.0 0.66 0.94 0.00 82 1026.5
20210302073452 45 270 0.0 0.0 0.66 0.94 0.00 82 1026.5
20210302072815 45 270 0.0 0.0 0.66 0.94 0.00 82 1026.8
20210302072115 45 292 0.0 0.0 0.66 0.94 0.00 81 1026.8
20210302071617 45 292 0.0 0.0 0.66 0.94 0.00 80 1026.8
20210302071058 45 270 0.0 0.0 0.66 0.94 0.00 78 1026.8
20210302070520 45 270 0.0 0.0 0.66 0.94 0.00 77 1026.8
20210302070028 45 270 0.0 5.0 0.66 0.94 0.00 77 1026.7
20210302065715 45 270 0.0 5.0 0.00 0.29 0.00 77 1026.7
20210302065023 45 270 0.0 0.0 0.00 0.29 0.00 77 1026.6
20210302064436 45 270 0.0 0.0 0.00 0.29 0.00 77 1026.6
20210302064041 45 270 0.0 0.0 0.00 0.29 0.00 79 1026.6
20210302062942 45 270 0.0 0.0 0.00 0.29 0.00 83 1026.7
20210302061746 44 292 0.0 0.0 0.00 0.29 0.00 85 1026.7
20210302060612 44 270 0.0 0.0 0.00 0.29 0.29 85 1026.8
20210302055930 44 270 0.0 0.0 0.00 0.29 0.29 85 1026.8
20210302055638 44 315 0.0 0.0 0.00 0.29 0.29 84 1026.8
20210302054601 44 270 0.0 0.0 0.00 0.29 0.29 84 1026.8
20210302053747 44 270 0.0 0.0 0.00 0.29 0.29 84 1026.7
20210302053446 44 270 0.0 0.0 0.00 0.29 0.29 83 1026.7
20210302053052 45 270 0.0 0.0 0.00 0.29 0.29 82 1026.7
20210302052231 45 270 0.0 0.0 0.00 0.29 0.29 81 1026.6
20210302051718 45 202 0.0 0.0 0.00 0.29 0.29 82 1026.6
20210302051206 45 248 0.0 0.0 0.00 0.29 0.29 82 1026.6
20210302050710 45 202 0.0 0.0 0.00 0.29 0.29 83 1026.6
20210302050135 45 248 0.0 0.0 0.00 0.29 0.29 83 1026.8
20210302045632 45 225 0.0 0.0 0.00 0.29 0.29 84 1026.8
20210302045137 45 112 0.0 0.0 0.00 0.29 0.29 85 1026.8
20210302044623 45 135 0.0 0.0 0.00 0.29 0.29 86 1026.8
20210302044121 45 135 0.0 0.0 0.00 0.29 0.29 85 1026.8
20210302043607 45 112 0.0 0.0 0.00 0.29 0.29 85 1026.7
20210302043343 45 135 0.0 0.0 0.00 0.29 0.29 84 1026.7
20210302042628 46 158 0.0 0.0 0.00 0.29 0.29 84 1026.9
20210302042024 46 158 0.0 0.0 0.00 0.29 0.29 84 1026.9
20210302041534 46 158 0.0 0.0 0.00 0.29 0.29 84 1026.9
20210302041022 46 158 0.0 0.0 0.00 0.29 0.29 85 1026.8
20210302040525 46 158 0.0 0.0 0.00 0.29 0.29 85 1026.8
20210302040018 46 112 0.0 0.0 0.00 0.29 0.29 85 1026.7
20210302035453 46 112 0.0 0.0 0.00 0.29 0.29 85 1026.7
20210302035038 47 112 0.0 0.0 0.00 0.29 0.29 85 1026.7
20210302034426 47 112 0.0 0.0 0.00 0.29 0.29 86 1026.7
20210302033927 47 112 0.0 0.0 0.00 0.29 0.29 85 1026.7
20210302033425 47 112 0.0 0.0 0.00 0.29 0.29 85 1026.6
20210302033033 47 112 0.0 0.0 0.00 0.29 0.29 85 1026.6
20210302032419 48 112 0.0 0.0 0.00 0.29 0.29 85 1026.7
20210302031853 48 112 0.0 0.0 0.00 0.29 0.29 85 1026.7
20210302031333 48 112 0.0 0.0 0.00 0.29 0.29 84 1026.5
20210302030820 48 112 0.0 0.0 0.00 0.29 0.29 83 1026.5
20210302030300 48 112 0.0 0.0 0.00 0.29 0.29 83 1026.5
20210302025759 48 112 0.0 0.0 0.00 0.29 0.29 83 1026.3
20210302025246 48 112 0.0 0.0 0.00 0.29 0.29 83 1026.3
20210302024739 49 112 0.0 0.0 0.00 0.29 0.29 82 1026.3
20210302024233 49 112 0.0 0.0 0.00 0.29 0.29 82 1026.3
20210302023713 49 112 0.0 0.0 0.00 0.29 0.29 82 1026.0
20210302023209 49 112 0.0 0.0 0.00 0.29 0.29 82 1026.0
20210302022738 49 112 0.0 0.0 0.00 0.29 0.29 82 1025.8
20210302022136 49 90 0.0 0.0 0.00 0.29 0.29 81 1025.8
20210302021552 49 112 0.0 0.0 0.00 0.29 0.29 81 1025.8
20210302021046 49 112 0.0 0.0 0.00 0.29 0.29 81 1025.8
20210302020544 49 112 0.0 0.0 0.00 0.29 0.29 81 1025.8
20210302020037 49 112 0.0 0.0 0.00 0.29 0.29 80 1025.8
20210302015525 50 112 0.0 0.0 0.00 0.29 0.29 80 1025.8
20210302015134 50 112 0.0 0.0 0.00 0.29 0.29 80 1025.9
20210302014442 50 112 0.0 0.0 0.00 0.29 0.29 80 1025.9
20210302013932 50 112 0.0 0.0 0.00 0.29 0.29 79 1025.9
20210302013726 50 112 0.0 0.0 0.00 0.29 0.29 79 1025.5
20210302013452 50 112 0.0 0.0 0.00 0.29 0.29 79 1025.5
20210302012558 50 112 0.0 0.0 0.00 0.29 0.29 79 1025.4
20210302011858 50 112 0.0 0.0 0.00 0.29 0.29 79 1025.4
20210302011400 51 112 0.0 0.0 0.00 0.29 0.29 79 1025.3
20210302010841 51 135 0.0 0.0 0.00 0.29 0.29 77 1025.3
20210302010355 51 112 0.0 0.0 0.00 0.29 0.29 77 1025.3
20210302005827 51 112 0.0 0.0 0.00 0.29 0.29 77 1025.1
20210302005328 51 112 0.0 0.0 0.00 0.29 0.29 76 1025.1
20210302004909 51 112 0.0 0.0 0.00 0.29 0.29 76 1025.0
20210302004251 52 135 0.0 0.0 0.00 0.29 0.29 75 1025.0
20210302003753 52 112 0.0 0.0 0.00 0.30 0.29 75 1025.2
20210302003530 52 90 0.0 0.0 0.00 0.30 0.29 73 1025.2
20210302003103 52 112 0.0 0.0 0.00 0.30 0.29 73 1025.2
20210302002205 53 90 0.0 0.0 0.00 0.30 0.29 72 1025.2
20210302001650 53 112 0.0 0.0 0.00 0.30 0.29 71 1025.2
20210302001109 53 112 0.0 0.0 0.00 0.31 0.29 71 1025.1
20210302000622 53 202 0.0 0.0 0.00 0.31 0.29 71 1025.1
20210302000138 53 180 0.0 0.0 0.00 0.31 0.29 70 1024.9
20210301235557 53 158 0.0 0.0 0.00 0.31 0.29 70 1024.9
20210301235200 54 225 0.0 0.0 0.00 0.31 0.29 69 1024.8
20210301234547 54 180 0.0 0.0 0.00 0.31 0.29 69 1024.8
20210301234046 54 202 0.0 0.0 0.00 0.31 0.29 70 1024.8
20210301233536 54 158 0.0 0.0 0.00 0.31 0.29 69 1024.5
20210301233334 54 180 0.0 0.0 0.00 0.31 0.29 69 1024.5
20210301232751 54 158 0.0 0.0 0.00 0.31 0.29 68 1024.4
20210301231959 54 270 0.0 3.0 0.00 0.31 0.29 68 1024.4
20210301231457 54 180 0.0 0.0 0.00 0.31 0.29 69 1024.6
20210301230952 54 112 0.0 0.0 0.00 0.31 0.29 68 1024.6
20210301230444 54 202 0.0 0.0 0.00 0.31 0.29 68 1024.6
20210301225936 54 270 0.0 1.0 0.00 0.31 0.29 68 1024.5
20210301225426 54 158 0.0 1.0 0.00 0.31 0.29 68 1024.5
20210301224952 54 225 0.0 0.0 0.00 0.31 0.29 67 1024.4
20210301224419 55 270 0.0 0.0 0.00 0.31 0.29 68 1024.4
20210301223924 55 270 0.0 0.0 0.00 0.31 0.29 68 1024.4
20210301223453 54 180 0.0 0.0 0.00 0.31 0.29 69 1024.4
20210301223235 54 180 0.0 0.0 0.00 0.31 0.29 68 1024.4
20210301222524 54 202 0.0 0.0 0.00 0.31 0.29 68 1024.6
20210301221900 54 180 0.0 0.0 0.00 0.31 0.29 69 1024.6
20210301221401 55 248 0.0 0.0 0.00 0.31 0.29 68 1024.6
20210301220920 55 158 0.0 0.0 0.00 0.31 0.29 69 1024.6
20210301220339 55 180 0.0 1.0 0.00 0.31 0.29 69 1024.6
20210301215825 54 225 0.0 1.0 0.00 0.31 0.29 69 1024.7
20210301215248 55 225 0.0 0.0 0.00 0.31 0.29 68 1024.7
20210301214914 55 270 0.0 0.0 0.00 0.31 0.29 68 1024.5
20210301214245 55 270 0.0 3.0 0.00 0.31 0.29 67 1024.5
20210301213756 56 225 0.0 3.0 0.00 0.31 0.29 68 1024.5
20210301213542 55 315 0.0 0.0 0.00 0.31 0.29 67 1024.5
20210301213414 54 270 0.0 0.0 0.00 0.31 0.29 67 1024.6
20210301212201 54 270 0.0 1.0 0.00 0.31 0.29 71 1024.6
20210301211644 55 248 0.0 1.0 0.00 0.32 0.29 69 1024.6
20210301211153 55 135 0.0 2.0 0.00 0.34 0.29 67 1024.6
20210301210607 55 292 0.0 3.0 0.00 0.36 0.29 69 1024.6
20210301210109 54 202 0.0 4.0 0.00 0.42 0.29 70 1024.6
20210301205600 54 0 1.0 4.0 0.00 0.44 0.29 69 1024.6
20210301205232 54 22 1.0 4.0 0.00 0.44 0.29 69 1024.6
20210301204544 54 225 0.0 3.0 0.00 0.44 0.29 69 1024.6
20210301204033 54 270 0.0 3.0 0.00 0.44 0.29 71 1024.6
20210301203532 53 270 0.0 4.0 0.00 0.44 0.29 71 1024.7
20210301203343 53 270 0.0 4.0 0.00 0.44 0.29 72 1024.7
20210301202554 53 270 0.0 4.0 0.00 0.44 0.29 72 1024.4
20210301202020 53 158 2.0 6.0 0.00 0.44 0.29 73 1024.4
20210301201504 53 270 1.0 6.0 0.00 0.44 0.29 72 1024.2
20210301200955 53 270 0.0 2.0 0.00 0.44 0.29 71 1024.2
20210301200454 53 180 0.0 6.0 0.00 0.44 0.29 73 1024.2
20210301200022 53 225 2.0 6.0 0.00 0.44 0.29 74 1024.1
20210301195443 52 315 1.0 5.0 0.00 0.44 0.29 73 1024.1
20210301195156 52 225 0.0 3.0 0.00 0.44 0.29 73 1024.4
20210301194423 52 202 0.0 6.0 0.00 0.44 0.29 75 1024.4
20210301193921 52 292 1.0 6.0 0.00 0.44 0.29 74 1024.4
20210301193453 52 270 1.0 6.0 0.00 0.44 0.29 75 1024.2
20210301193043 51 270 2.0 6.0 0.00 0.44 0.29 75 1024.2
20210301192440 52 225 1.0 4.0 0.00 0.44 0.29 76 1024.2
20210301191914 51 292 1.0 5.0 0.00 0.44 0.29 76 1024.2
20210301191400 51 180 2.0 5.0 0.00 0.44 0.29 76 1024.6
20210301190859 51 0 1.0 5.0 0.00 0.44 0.29 76 1024.6
20210301190355 51 315 2.0 5.0 0.00 0.44 0.29 77 1024.6
20210301185854 51 292 2.0 5.0 0.00 0.44 0.29 76 1024.5
20210301185342 51 338 1.0 5.0 0.00 0.44 0.29 77 1024.5
20210301184857 50 292 0.0 6.0 0.00 0.44 0.29 79 1024.7
20210301184321 49 270 4.0 6.0 0.00 0.44 0.29 79 1024.7
20210301183829 49 270 2.0 6.0 0.00 0.44 0.29 79 1025.2
20210301183646 49 270 2.0 6.0 0.00 0.44 0.29 80 1025.2
20210301183215 49 292 1.0 5.0 0.00 0.44 0.29 79 1025.2
20210301182305 50 270 1.0 7.0 0.00 0.44 0.29 79 1025.1
20210301181801 50 270 2.0 7.0 0.00 0.44 0.29 78 1025.1
20210301181259 50 315 1.0 7.0 0.00 0.44 0.29 80 1024.9
20210301180743 49 270 1.0 4.0 0.00 0.44 0.29 80 1024.9
20210301180212 50 270 1.0 5.0 0.00 0.44 0.29 80 1024.9
20210301175642 50 338 1.0 5.0 0.00 0.45 0.29 81 1024.9
20210301175203 49 270 1.0 5.0 0.00 0.45 0.29 81 1024.9
20210301174623 49 292 2.0 7.0 0.00 0.45 0.29 81 1024.9
20210301174108 49 270 1.0 7.0 0.00 0.45 0.29 82 1024.9
20210301173603 48 338 0.0 4.0 0.00 0.45 0.29 82 1024.6
20210301173308 48 270 1.0 4.0 0.01 0.45 0.29 81 1024.6
20210301172520 47 270 0.0 0.0 0.01 0.45 0.29 83 1024.4
20210301171936 47 270 0.0 0.0 0.01 0.45 0.29 84 1024.4
20210301171423 47 112 0.0 0.0 0.01 0.45 0.29 84 1024.5
20210301170916 47 248 0.0 0.0 0.01 0.45 0.29 83 1024.5
20210301170354 47 270 0.0 0.0 0.01 0.45 0.29 83 1024.5
20210301165841 47 270 0.0 0.0 0.01 0.45 0.29 84 1024.4
20210301165340 47 270 0.0 0.0 0.01 0.45 0.29 85 1024.4
20210301164930 46 270 0.0 0.0 0.01 0.45 0.29 85 1023.8
20210301164339 46 270 0.0 0.0 0.01 0.45 0.29 85 1023.8
20210301163829 46 180 0.0 1.0 0.02 0.45 0.29 86 1023.2
20210301163520 45 158 0.0 1.0 0.02 0.44 0.28 85 1023.2
20210301163245 45 180 0.0 1.0 0.04 0.44 0.28 86 1023.2
20210301162306 45 158 0.0 5.0 0.04 0.44 0.28 86 1023.2
20210301161757 45 90 1.0 5.0 0.06 0.44 0.28 86 1023.2
20210301161246 45 202 0.0 3.0 0.07 0.44 0.28 87 1023.0
20210301160733 45 158 0.0 0.0 0.07 0.44 0.28 87 1023.0
20210301160223 45 225 0.0 0.0 0.07 0.44 0.28 87 1023.6
20210301155720 45 202 0.0 1.0 0.08 0.44 0.28 89 1023.6
20210301155205 45 135 0.0 1.0 0.08 0.44 0.28 89 1023.6
20210301154648 44 158 0.0 0.0 0.09 0.44 0.28 89 1024.2
20210301154148 44 112 0.0 0.0 0.08 0.43 0.27 89 1024.2
20210301153630 44 180 0.0 0.0 0.08 0.43 0.27 89 1024.0
20210301153133 44 112 0.0 0.0 0.06 0.41 0.25 88 1024.0
20210301152834 44 202 0.0 0.0 0.05 0.40 0.24 87 1025.1
20210301152132 44 158 0.0 0.0 0.04 0.39 0.23 87 1025.1
20210301151632 44 112 0.0 0.0 0.03 0.38 0.22 87 1025.1
20210301151128 44 180 0.0 0.0 0.02 0.37 0.21 87 1024.4
20210301150552 44 270 0.0 3.0 0.02 0.37 0.21 86 1024.4
20210301150055 44 270 0.0 0.0 0.02 0.37 0.21 85 1024.2
20210301145537 44 315 0.0 0.0 0.01 0.36 0.20 85 1024.2
20210301145036 44 270 0.0 0.0 0.01 0.36 0.20 83 1024.7
20210301144534 44 270 0.0 0.0 0.00 0.35 0.19 83 1024.7
20210301144045 44 248 0.0 0.0 0.00 0.35 0.19 83 1024.7